EHI
9 9 7 4 2 1 0 0 0 0 0 0 0 0 0 0 0 0 0 0 0 0 0 0 0 0 0 0 0 0 1 2 2 2 1 0 0 1 0 0 0 0 0 0 0 0 0 0 0
6 6 6 4 1 0 0 0 0 0 0 0 0 0 0 0 0 0 0 0 0 0 0 0 0 0 0 0 0 0 0 1 1 1 0 0 0 1 0 0 0 0 0 0 0 0 0 0 0
4 4 4 3 1 0 0 0 0 0 0 0 0 0 0 0 0 0 0 0 0 0 0 0 0 0 0 0 0 0 0 0 0 0 0 0 0 0 0 0 0 0 0 0 0 0 0 0 0
3 4 3 1 0 0 0 0 0 0 0 0 0 0 0 0 0 0 0 0 0 0 0 0 0 0 0 0 0 0 0 0 0 0 0 0 0 0 0 0 0 0 0 0 0 0 0 0 0
2 2 1 0 0 0 0 0 0 0 0 0 0 0 0 0 0 0 0 0 0 0 0 0 0 0 0 0 0 0 0 0 0 0 0 0 0 0 0 0 0 0 0 0 0 0 0 0 0
0 0 0 0 0 0 0 0 0 0 0 0 0 0 0 0 0 0 0 0 0 0 0 0 1 1 1 0 0 0 0 0 0 0 0 0 0 0 0 0 1 0 0 0 0 0 0 0 0
0 0 0 0 0 0 0 0 0 0 0 0 0 0 0 0 0 0 0 0 0 0 0 0 1 1 1 0 0 0 0 0 0 0 0 0 0 0 0 0 0 0 0 0 0 0 0 0 0
0 0 0 0 0 0 0 0 0 0 0 0 0 0 0 0 0 0 0 0 0 0 0 0 0 1 1 0 1 1 1 0 0 0 0 0 0 0 0 0 0 0 0 0 0 0 0 0 0
0 0 0 0 0 0 0 0 0 0 0 0 0 0 1 1 0 0 0 0 0 0 0 0 0 0 1 1 1 2 2 1 0 0 0 0 0 0 0 0 0 0 0 0 0 0 0 0 0
0 0 0 0 0 0 0 0 0 0 0 0 0 2 3 3 1 0 0 0 0 0 0 0 0 1 2 2 2 3 2 1 1 1 1 1 1 1 0 0 0 0 0 0 0 0 0 0 0
0 0 0 0 0 0 0 0 0 0 0 0 1 3 5 4 1 0 1 1 0 0 0 0 0 1 2 3 2 2 3 3 2 2 2 2 2 2 1 0 0 0 0 0 0 0 0 0 0
0 0 0 0 0 0 0 0 0 0 0 0 1 4 6 4 1 1 2 2 1 1 0 0 0 1 2 1 1 2 3 3 3 3 3 3 3 2 1 0 0 0 0 0 0 0 0 0 0
0 0 0 0 0 0 0 0 0 0 0 0 2 5 5 3 1 1 2 2 2 3 2 1 1 1 1 1 1 2 3 3 3 3 3 3 3 1 0 0 0 0 0 0 0 0 0 0 0
0 0 0 0 0 0 0 0 0 0 0 1 3 4 4 3 1 1 2 2 3 3 3 2 2 2 2 2 2 3 3 3 3 3 3 3 3 1 1 0 0 0 0 0 1 0 1 2 2
0 0 0 0 0 0 0 0 0 0 0 2 3 3 3 2 1 1 3 4 4 3 3 3 3 3 4 4 3 3 2 3 3 3 3 4 4 4 3 1 1 0 1 1 1 1 2 4 4
0 0 0 0 0 0 0 0 0 0 1 1 1 2 3 2 1 1 4 7 7 5 4 4 3 2 3 4 4 2 1 1 2 3 3 5 6 6 4 3 2 2 2 2 1 1 1 2 3
0 0 0 0 0 0 0 0 0 1 2 2 1 1 1 1 1 3 4 6 8 8 7 7 5 4 5 5 5 4 2 1 1 3 4 5 7 6 5 4 3 3 2 2 2 1 1 1 1
0 0 0 0 0 0 0 1 2 2 3 3 2 2 1 1 2 4 5 5 5 8 11 12 11 10 9 6 5 5 3 2 1 2 3 4 5 6 5 4 4 3 2 2 3 3 1 1 2
0 0 0 0 0 0 1 2 3 3 3 3 4 4 3 2 2 4 6 4 4 8 14 18 18 17 13 9 7 5 4 2 1 2 3 2 3 4 4 4 4 2 2 3 5 5 3 3 3
0 0 0 1 0 0 2 3 3 3 3 4 5 5 5 4 3 3 5 6 8 12 16 19 21 20 17 13 10 8 7 4 2 1 2 1 1 2 3 3 2 2 3 4 5 5 4 3 3
0 0 0 0 0 0 1 3 3 3 3 4 4 5 6 6 5 4 6 8 11 14 15 16 21 25 23 18 13 12 11 8 4 2 1 1 1 1 2 1 2 3 4 4 4 4 3 3 3
0 0 0 0 0 0 0 1 2 3 3 5 5 5 7 9 8 7 7 8 10 12 12 16 23 30 29 23 18 16 13 9 5 2 1 1 1 1 0 1 2 3 4 3 3 3 3 4 4
0 0 0 0 0 0 0 0 1 2 3 6 7 7 8 10 11 10 8 8 8 10 13 17 26 34 34 29 26 23 16 10 6 5 4 2 1 0 0 1 3 4 3 3 3 3 4 4 5
0 0 0 0 0 0 0 0 0 1 2 4 7 9 10 11 12 10 9 10 11 12 15 19 28 38 40 35 31 28 20 13 9 8 8 5 2 1 1 2 4 4 4 3 4 4 4 4 5
0 0 1 0 0 0 0 0 0 0 0 2 7 12 14 15 15 13 12 14 16 18 20 24 31 41 44 39 32 27 21 16 14 12 10 7 4 2 2 3 3 4 4 4 5 6 5 6 6
0 0 0 0 0 0 0 0 0 0 0 2 8 15 20 21 21 19 17 17 21 24 27 30 35 42 43 38 30 25 22 19 17 15 11 8 6 4 4 5 4 4 4 5 7 8 8 10 10
0 0 0 0 0 0 0 0 0 1 2 5 11 18 24 27 26 23 19 19 23 28 29 30 35 39 37 31 27 24 23 21 19 15 12 9 8 8 8 7 7 7 6 6 7 9 10 11 10
0 0 0 0 0 0 0 0 1 3 6 9 13 20 26 28 25 22 19 19 22 26 27 27 30 32 29 25 22 20 20 20 17 12 11 11 12 13 12 10 10 10 9 8 8 9 9 8 7
0 0 0 0 0 0 0 0 1 4 9 13 16 21 26 25 23 20 18 18 19 22 24 25 26 25 22 21 19 17 17 18 15 12 13 15 17 17 14 12 11 11 10 9 8 7 7 6 5
0 0 0 0 0 0 0 0 0 3 9 14 17 22 24 23 21 20 19 17 17 19 22 24 24 21 19 20 19 16 16 18 17 15 16 18 20 18 15 12 11 10 9 8 7 6 5 5 5
Wind_Speed
10 9 7 6 2 8 14 11 9 8 8 9 9 8 10 11 10 10 8 7 7 8 9 10 9 9 10 12 12 13 13 13 13 13 13 13 13 13 13 14 13 14 15 15 15 15 15 15 15
7 6 6 3 5 11 13 11 11 11 9 8 8 9 11 11 10 9 8 8 8 8 9 10 9 9 10 11 12 12 12 13 13 13 13 13 13 13 13 13 13 14 15 15 15 15 15 14 14
6 6 3 4 12 12 13 11 11 11 7 6 7 9 9 9 8 7 9 9 8 8 9 11 8 10 10 11 11 11 12 12 13 13 13 13 13 13 13 13 13 14 15 15 15 14 14 14 13
5 5 1 8 15 14 12 10 9 10 9 7 8 10 10 8 6 9 10 9 9 9 9 12 7 9 10 10 10 11 11 12 12 12 12 12 12 12 12 12 13 14 14 14 14 13 13 13 12
5 1 7 12 15 12 11 9 6 8 8 8 9 13 12 9 10 11 10 8 8 9 9 11 8 9 9 10 10 10 10 11 11 11 11 11 11 12 12 12 13 13 13 13 13 12 12 12 11
3 1 8 12 13 11 9 7 8 11 11 10 11 12 10 8 10 9 9 7 8 8 9 11 10 8 8 9 9 9 9 10 10 10 11 11 11 11 11 12 12 12 12 11 11 11 11 10 10
2 5 10 12 11 10 8 6 8 9 10 9 8 11 10 10 9 9 8 7 7 7 8 7 9 9 8 7 7 8 8 9 9 9 10 10 10 10 10 10 11 11 10 10 10 9 9 9 8
2 3 10 10 10 11 9 7 8 9 10 8 4 8 11 12 10 9 8 7 7 6 7 6 6 6 6 8 7 7 7 8 8 8 8 8 9 9 9 9 10 9 9 9 8 8 8 7 7
4 4 10 10 9 10 10 10 8 8 10 7 7 10 15 15 11 10 9 8 7 6 5 5 6 5 4 6 7 6 7 6 5 6 6 4 5 7 7 10 9 7 7 7 7 6 6 6 7
0 7 11 8 8 10 9 8 9 9 10 10 11 13 15 14 11 9 8 8 7 6 6 5 4 5 3 4 4 3 4 5 3 4 4 3 4 3 5 9 6 5 5 5 5 4 6 6 5
5 9 9 7 7 9 9 9 7 8 9 10 14 16 15 13 10 8 7 7 7 6 5 6 5 3 2 3 2 2 2 3 3 4 3 2 2 3 3 3 5 5 5 4 6 6 3 2 1
6 7 6 8 7 7 8 8 7 5 9 11 14 15 14 12 10 8 8 7 6 5 4 4 5 3 2 2 2 1 2 2 2 3 1 2 1 1 2 1 2 2 2 1 1 1 1 0 1
6 7 7 8 8 8 8 8 8 9 10 13 15 14 13 11 9 7 7 6 6 5 5 4 3 3 2 1 0 2 1 2 3 2 1 1 1 1 1 1 1 0 1 2 2 1 1 2 2
6 8 8 8 9 8 8 9 7 10 12 14 14 12 11 10 9 8 7 7 6 5 5 4 4 3 2 2 1 0 1 1 1 1 2 1 1 1 1 1 1 0 0 0 0 1 2 2 1
8 9 9 8 7 7 7 8 8 11 13 13 13 11 10 9 8 8 7 7 6 6 5 4 4 4 3 2 2 1 0 1 1 1 1 1 1 1 1 1 1 1 1 1 1 2 2 2 2
8 7 6 7 5 6 7 7 10 12 12 12 12 11 10 9 9 8 7 7 6 5 5 5 3 4 4 2 1 0 1 1 1 1 1 1 1 1 1 0 0 1 2 2 1 2 1 1 2
8 6 4 8 6 5 6 6 11 12 12 12 11 11 10 10 10 9 8 8 7 6 6 5 4 4 3 3 2 1 0 0 0 0 1 1 1 1 1 0 0 2 1 1 2 1 1 1 2
5 4 4 5 7 7 6 5 10 12 12 12 12 11 11 10 10 10 9 8 7 7 6 6 5 4 4 3 2 1 1 1 0 1 1 1 0 0 1 1 1 2 2 1 1 1 2 2 2
4 4 3 4 5 7 6 6 9 12 12 12 12 12 11 11 10 9 9 9 8 8 8 7 6 5 4 3 2 2 1 1 1 1 2 1 1 1 1 1 0 2 1 1 2 2 2 2 1
7 7 5 5 5 5 5 6 7 11 13 12 12 12 12 11 10 10 10 9 9 9 9 8 8 7 6 3 2 1 1 1 1 1 1 1 1 1 0 1 1 1 1 1 1 2 2 2 2
9 7 4 4 6 6 5 8 9 10 12 12 12 12 12 11 12 11 11 11 10 10 10 8 8 7 6 5 4 3 2 2 2 1 1 1 1 1 2 1 2 2 2 1 1 2 2 2 2
9 5 5 6 7 5 6 4 7 9 11 13 14 13 13 12 12 12 12 11 11 10 9 9 8 7 7 7 5 4 2 2 1 0 1 1 1 1 1 1 2 2 2 2 2 1 2 3 2
4 4 6 7 8 6 6 8 4 8 9 12 13 14 13 13 12 12 12 11 11 10 9 9 8 8 7 6 5 5 3 2 2 1 1 1 1 1 2 2 2 2 2 3 3 2 3 2 3
8 8 6 7 8 9 5 7 3 4 6 7 11 12 13 12 12 12 11 11 10 10 9 9 9 8 8 7 6 5 3 2 1 1 1 1 1 0 1 1 2 2 3 3 3 3 2 3 3
11 10 8 9 9 7 4 7 3 2 3 4 7 10 12 12 12 12 12 12 11 11 10 9 10 9 8 8 6 6 5 4 3 2 1 1 0 0 1 2 2 2 2 3 3 2 3 2 2
14 14 10 8 7 5 6 7 2 3 2 4 5 8 10 12 12 12 12 12 11 11 11 10 10 9 9 8 7 6 5 4 2 1 1 0 1 2 2 2 2 2 3 3 2 2 2 2 2
14 14 11 10 8 8 6 5 5 4 5 6 6 8 9 11 12 12 12 12 11 11 11 11 10 10 9 8 7 6 5 3 2 2 2 0 0 0 1 2 2 2 3 3 2 2 2 2 2
9 11 8 11 9 10 8 8 5 6 6 7 8 8 9 10 11 12 11 11 10 10 10 10 10 10 9 9 7 6 5 5 3 2 1 0 0 1 1 1 2 2 3 3 3 2 3 2 3
10 11 10 10 10 10 8 5 2 3 5 7 8 8 8 10 11 11 11 11 10 10 10 11 10 9 9 8 7 6 6 5 4 3 2 2 1 1 1 1 2 2 3 3 3 3 3 3 3
12 13 13 11 9 10 10 3 5 2 4 5 6 7 7 8 9 10 11 11 11 11 10 11 10 10 9 8 8 7 6 5 5 4 3 3 2 2 2 2 2 2 3 3 3 3 4 4 4
Wind_Direction
181 187 213 233 186 76 65 63 66 80 73 65 63 58 61 46 40 74 92 95 98 97 94 92 72 69 72 76 79 81 84 86 86 86 88 89 92 95 96 97 98 100 101 101 100 100 100 100 100
174 192 224 233 70 77 70 66 70 72 89 97 81 75 75 67 60 92 109 104 106 96 93 82 77 73 77 77 77 80 83 86 88 87 86 86 90 93 97 97 98 100 101 100 100 99 100 101 101
186 230 270 69 63 65 76 77 84 88 89 89 86 66 59 69 81 96 107 118 109 96 94 88 79 77 79 77 79 80 85 85 87 89 87 85 86 88 92 96 99 101 101 100 100 100 101 102 103
219 209 142 76 74 68 79 91 101 103 90 84 96 86 74 58 78 104 118 121 113 109 102 94 81 80 78 79 80 82 86 84 87 87 88 89 88 90 91 93 97 99 101 102 103 104 104 105 106
238 186 95 81 77 79 83 90 92 88 88 91 95 97 86 76 98 113 121 123 114 107 102 101 88 83 80 80 79 79 82 85 86 86 90 92 91 92 94 96 98 100 101 103 105 105 105 106 107
223 129 83 81 84 89 91 94 95 94 100 102 104 102 90 107 115 119 120 118 111 109 106 108 108 89 81 80 82 81 82 83 86 86 90 95 93 93 96 98 101 103 104 104 105 106 109 110 108
14 70 80 87 94 95 92 96 93 103 106 99 107 104 114 123 122 124 119 116 111 108 107 109 118 119 112 91 82 84 83 85 86 87 91 95 96 96 98 101 102 105 109 109 109 109 110 113 114
325 95 90 87 89 92 107 101 96 104 99 108 114 115 128 134 136 131 128 125 117 110 106 109 104 103 121 119 103 90 87 87 89 90 95 104 112 113 115 119 107 106 109 111 111 112 115 119 124
253 92 82 77 81 102 122 118 107 106 115 103 85 95 117 134 143 143 140 131 122 114 112 110 109 107 104 104 112 125 119 111 124 117 119 151 132 119 129 98 106 110 113 114 115 120 126 140 146
253 77 76 69 77 110 125 119 124 134 125 117 111 110 126 142 151 151 144 140 133 132 130 117 105 102 100 96 110 111 114 110 102 87 106 112 92 91 98 110 117 118 123 132 135 150 177 206 164
72 78 88 90 90 113 124 120 130 134 128 133 137 140 147 150 155 153 143 136 129 137 134 125 117 117 114 108 103 83 88 101 110 101 106 105 128 134 128 137 142 151 167 165 157 189 193 173 127
96 86 91 99 108 119 116 118 119 99 98 127 139 145 152 158 158 154 147 145 143 148 144 125 121 117 84 56 84 113 106 104 87 102 118 123 119 107 105 118 116 143 146 136 180 162 163 181 180
108 105 102 108 116 113 117 111 104 103 112 130 138 149 157 160 155 153 147 150 154 164 162 143 138 127 128 117 332 85 70 63 92 89 94 75 134 115 107 91 87 153 140 167 177 184 183 215 207
109 117 119 121 122 129 126 119 122 117 133 140 150 158 161 161 160 158 164 167 172 175 168 155 164 154 155 152 158 25 83 87 47 79 76 60 106 108 145 153 125 156 190 354 229 204 208 215 210
142 136 130 129 136 141 148 132 122 134 147 152 158 162 164 168 173 177 175 179 179 177 172 171 177 167 171 177 192 172 118 86 53 67 77 86 115 116 170 151 182 146 163 187 223 230 231 217 202
175 176 151 138 154 162 215 123 135 151 161 162 166 168 176 181 188 188 186 189 187 179 174 186 187 163 172 181 229 249 30 52 39 46 102 111 115 159 235 195 191 204 227 216 209 232 228 233 237
196 199 150 146 170 180 222 128 144 165 172 171 176 180 185 187 196 196 196 195 192 185 183 187 190 186 181 173 188 204 151 28 354 2 46 107 157 180 229 237 17 248 244 252 263 213 253 237 244
191 194 170 162 165 197 209 152 153 175 185 182 184 188 192 197 198 195 198 197 194 189 189 191 188 192 194 187 183 206 184 173 160 40 30 10 181 127 287 204 226 264 256 259 280 274 263 260 253
226 227 189 142 157 205 208 192 174 180 194 193 192 194 199 202 197 194 197 200 196 191 191 192 196 189 199 203 216 200 183 184 150 122 70 27 10 34 294 306 217 267 265 281 263 257 228 234 238
228 224 187 147 165 222 213 212 188 189 200 202 200 200 202 201 197 196 198 198 197 193 192 191 194 195 204 195 212 217 225 198 126 46 80 41 27 351 281 291 274 286 278 253 273 266 278 253 236
221 230 204 165 168 205 235 208 195 194 205 207 212 211 209 205 201 198 199 199 195 193 193 194 193 194 202 198 200 183 176 200 165 159 135 55 12 9 355 350 321 322 303 334 298 276 272 273 258
213 209 202 183 206 194 232 255 173 188 200 209 212 213 212 207 204 202 198 197 195 192 188 190 189 192 192 197 204 208 210 196 144 173 103 111 32 357 349 346 342 327 324 337 290 291 271 266 261
197 162 195 208 232 244 213 264 152 174 205 207 208 210 211 206 202 200 199 196 196 191 185 182 185 187 189 196 191 204 207 187 168 167 116 297 72 1 343 343 340 330 326 341 327 321 291 272 273
149 156 175 216 235 241 230 257 236 172 206 197 196 203 205 201 197 197 195 190 191 188 183 178 177 182 184 187 188 196 193 194 188 194 177 211 132 32 358 327 332 324 331 328 315 306 295 301 296
195 198 206 213 221 232 178 245 266 128 184 204 193 194 196 197 193 191 191 188 187 186 182 177 174 179 181 181 183 185 188 192 199 223 188 282 322 28 24 346 337 335 335 324 320 312 316 308 295
210 220 228 236 235 211 182 236 224 121 169 195 193 185 188 190 190 190 189 188 186 183 179 178 177 178 178 177 179 183 191 200 189 200 272 281 346 15 10 348 348 347 340 338 338 322 329 336 312
208 224 241 249 251 254 221 223 221 174 181 179 177 176 180 183 185 188 187 187 185 181 179 178 176 176 176 174 174 178 185 187 175 180 212 206 336 23 28 3 358 1 4 353 337 14 355 357 346
243 222 223 239 241 244 234 231 219 181 180 171 176 178 177 179 180 183 183 183 181 178 175 176 176 176 174 174 179 171 174 175 178 180 123 76 35 20 13 9 16 16 15 12 2 35 32 27 36
195 209 222 234 245 249 244 221 126 185 181 176 175 173 174 178 179 178 178 177 173 173 172 173 173 174 174 173 171 170 168 168 168 163 155 142 108 83 47 35 40 42 34 30 32 39 42 43 46
218 214 211 222 225 241 261 223 115 153 172 176 175 168 168 171 172 174 172 170 171 172 173 173 173 175 173 168 166 166 163 161 161 150 142 134 121 108 89 74 61 55 51 43 46 42 43 42 42